FW0373 Weather Reports


time (UTC)temp
F
wind
direction
speed
knots
gust
knots
rain 1hr
in
rain 24hr
in
rain mn
in
humidity
%
barometer
mb
20260502113405 54 0.0 0.0 0.00 0.00 0.00 80 1008.8
20260502112406 55 0.0 0.0 0.00 0.00 0.00 79 1008.8
20260502105418 55 0.0 0.0 0.00 0.00 0.00 78 1008.7
20260502104420 55 0.0 0.0 0.00 0.00 0.00 76 1008.7
20260502103407 56 0.0 0.0 0.00 0.00 0.00 76 1008.8
20260502102407 56 0.0 0.0 0.00 0.00 0.00 75 1008.8
20260502100409 56 0.0 0.0 0.00 0.00 0.00 74 1008.9
20260502090408 58 0.0 0.0 0.00 0.00 0.00 73 1009.0
20260502071403 60 0.0 0.0 0.00 0.00 0.00 67 1009.5
20260502070403 60 0.0 0.0 0.00 0.00 0.00 67 1009.5
20260502065405 60 0.0 0.0 0.00 0.00 0.00 68 1009.4
20260502064404 60 0.0 0.0 0.00 0.00 0.00 68 1009.5
20260502063404 61 0.0 0.0 0.00 0.00 0.00 67 1009.5
20260502062406 61 0.0 0.0 0.00 0.00 0.00 66 1009.6
20260502061429 61 0.0 0.0 0.00 0.00 0.00 66 1009.7
20260502060406 62 0.0 0.0 0.00 0.00 0.00 63 1009.5
20260502055403 62 0.0 0.0 0.00 0.00 0.00 62 1009.6
20260502054406 63 0.0 0.0 0.00 0.00 0.00 61 1009.4
20260502053405 63 0.0 0.0 0.00 0.00 0.00 61 1009.6
20260502051406 64 0.0 0.0 0.00 0.00 0.00 59 1009.7
20260502050404 64 0.0 0.0 0.00 0.00 0.00 60 1009.6
20260502045534 64 0.0 0.0 0.00 0.00 0.00 60 1009.6
20260502044407 64 0.0 0.0 0.00 0.00 0.00 59 1009.3
20260502043429 65 0.0 0.0 0.00 0.00 0.00 58 1009.2
20260502042403 65 0.0 0.0 0.00 0.00 0.00 58 1009.3
20260502041404 66 0.0 0.0 0.00 0.00 0.00 56 1009.2
20260502040403 67 0.0 0.0 0.00 0.00 0.00 55 1008.9
20260502035403 67 0.0 0.0 0.00 0.00 0.00 53 1008.9
20260502034405 68 0.0 0.0 0.00 0.00 0.00 52 1008.8
20260502033406 70 0.0 0.0 0.00 0.00 0.00 50 1008.7
20260502032404 70 0.0 0.0 0.00 0.00 0.00 49 1008.5
20260502031406 72 0.0 0.0 0.00 0.00 0.00 46 1008.5
20260501201408 87 202 2.6 6.1 0.00 0.00 0.00 30 1008.9
20260501160406 75 0 3.5 7.8 0.00 0.00 0.00 44 1010.8